Location: Ahausen
(50.4985°N, 8.2722°E)
Time: 07:13:47
(UTC+00:00)

Meteor 1-22 Rocket - Pass Details

Date: 18 September 2020
Orbit: 786 x 941 km, 81.2° (Epoch: 21 October)

Event Time Altitude Azimuth Distance (km) Brightness Sun altitude
Exits shadow 20:43:05 48° 217° (SW) 1,162 4.8 -28.2°
Maximum altitude 20:44:42 71° 284° (WNW) 962 4.5 -28.3°
Drops below altitude 10° 20:50:46 10° 9° (N) 2,646 7.2 -29.0°
Sets 20:53:19 0° 12° (NNE) 3,605 7.9 -29.3°
